Year,Month,Day,Hour,Minute,Value (Times are PST for temperature in C)
2015,09,29,00,00,8.40
2015,09,29,00,01,8.40
2015,09,29,00,02,8.40
2015,09,29,00,03,8.40
2015,09,29,00,04,8.40
2015,09,29,00,05,8.40
2015,09,29,00,06,8.40
2015,09,29,00,07,8.40
2015,09,29,00,08,8.40
2015,09,29,00,09,8.40
2015,09,29,00,10,8.40
2015,09,29,00,11,8.40
2015,09,29,00,12,8.30
2015,09,29,00,13,8.30
2015,09,29,00,14,8.30
2015,09,29,00,15,8.30
2015,09,29,00,16,8.30
2015,09,29,00,17,8.30
2015,09,29,00,18,8.30
2015,09,29,00,19,8.30
2015,09,29,00,20,8.20
2015,09,29,00,21,8.20
2015,09,29,00,22,8.20
2015,09,29,00,23,8.20
2015,09,29,00,24,8.20
2015,09,29,00,25,8.20
2015,09,29,00,26,8.20
2015,09,29,00,27,8.20
2015,09,29,00,28,8.10
2015,09,29,00,29,8.10
2015,09,29,00,30,8.10
2015,09,29,00,31,8.10
2015,09,29,00,32,8.10
2015,09,29,00,33,8.10
2015,09,29,00,34,8.10
2015,09,29,00,35,8.10
2015,09,29,00,36,8.10
2015,09,29,00,37,8.10
2015,09,29,00,38,8.10
2015,09,29,00,39,8.10
2015,09,29,00,40,8.10
2015,09,29,00,41,8.00
2015,09,29,00,42,8.00
2015,09,29,00,43,8.00
2015,09,29,00,44,8.00
2015,09,29,00,45,8.00
2015,09,29,00,46,8.00
2015,09,29,00,47,8.00
2015,09,29,00,48,8.00
2015,09,29,00,49,7.90
2015,09,29,00,50,7.90
2015,09,29,00,51,7.90
2015,09,29,00,52,7.90
2015,09,29,00,53,7.90
2015,09,29,00,54,7.90
2015,09,29,00,55,7.80
2015,09,29,00,56,7.80
2015,09,29,00,57,7.80
2015,09,29,00,58,7.80
2015,09,29,00,59,7.80
2015,09,29,01,00,7.80
2015,09,29,01,01,7.80
2015,09,29,01,02,7.70
2015,09,29,01,03,7.70
2015,09,29,01,04,7.70
2015,09,29,01,05,7.70
2015,09,29,01,06,7.70
2015,09,29,01,07,7.70
2015,09,29,01,08,7.70
2015,09,29,01,09,7.70
2015,09,29,01,10,7.70
2015,09,29,01,11,7.70
2015,09,29,01,12,7.70
2015,09,29,01,13,7.70
2015,09,29,01,14,7.70
2015,09,29,01,15,7.70
2015,09,29,01,16,7.70
2015,09,29,01,17,7.70
2015,09,29,01,18,7.70
2015,09,29,01,19,7.70
2015,09,29,01,20,7.70
2015,09,29,01,21,7.70
2015,09,29,01,22,7.70
2015,09,29,01,23,7.70
2015,09,29,01,24,7.70
2015,09,29,01,25,7.70
2015,09,29,01,26,7.60
2015,09,29,01,27,7.60
2015,09,29,01,28,7.60
2015,09,29,01,29,7.60
2015,09,29,01,30,7.60
2015,09,29,01,31,7.60
2015,09,29,01,32,7.60
2015,09,29,01,33,7.60
2015,09,29,01,34,7.60
2015,09,29,01,35,7.60
2015,09,29,01,36,7.60
2015,09,29,01,37,7.60
2015,09,29,01,38,7.60
2015,09,29,01,39,7.60
2015,09,29,01,40,7.60
2015,09,29,01,41,7.60
2015,09,29,01,42,7.50
2015,09,29,01,43,7.50
2015,09,29,01,44,7.50
2015,09,29,01,45,7.50
2015,09,29,01,46,7.50
2015,09,29,01,47,7.50
2015,09,29,01,48,7.50
2015,09,29,01,49,7.50
2015,09,29,01,50,7.50
2015,09,29,01,51,7.50
2015,09,29,01,52,7.50
2015,09,29,01,53,7.50
2015,09,29,01,54,7.50
2015,09,29,01,55,7.40
2015,09,29,01,56,7.40
2015,09,29,01,57,7.40
2015,09,29,01,58,7.40
2015,09,29,01,59,7.40
2015,09,29,02,00,7.40
2015,09,29,02,01,7.40
2015,09,29,02,02,7.40
2015,09,29,02,03,7.40
2015,09,29,02,04,7.40
2015,09,29,02,05,7.30
2015,09,29,02,06,7.30
2015,09,29,02,07,7.30
2015,09,29,02,08,7.30
2015,09,29,02,09,7.30
2015,09,29,02,10,7.30
2015,09,29,02,11,7.30
2015,09,29,02,12,7.30
2015,09,29,02,13,7.30
2015,09,29,02,14,7.30
2015,09,29,02,15,7.30
2015,09,29,02,16,7.30
2015,09,29,02,17,7.30
2015,09,29,02,18,7.30
2015,09,29,02,19,7.30
2015,09,29,02,20,7.30
2015,09,29,02,21,7.30
2015,09,29,02,22,7.20
2015,09,29,02,23,7.20
2015,09,29,02,24,7.20
2015,09,29,02,25,7.20
2015,09,29,02,26,7.20
2015,09,29,02,27,7.20
2015,09,29,02,28,7.20
2015,09,29,02,29,7.20
2015,09,29,02,30,7.10
2015,09,29,02,31,7.10
2015,09,29,02,32,7.10
2015,09,29,02,33,7.10
2015,09,29,02,34,7.10
2015,09,29,02,35,7.10
2015,09,29,02,36,7.10
2015,09,29,02,37,7.10
2015,09,29,02,38,7.10
2015,09,29,02,39,7.10
2015,09,29,02,40,7.10
2015,09,29,02,41,7.10
2015,09,29,02,42,7.10
2015,09,29,02,43,7.10
2015,09,29,02,44,7.10
2015,09,29,02,45,7.10
2015,09,29,02,46,7.10
2015,09,29,02,47,7.10
2015,09,29,02,48,7.10
2015,09,29,02,49,7.10
2015,09,29,02,50,7.10
2015,09,29,02,51,7.10
2015,09,29,02,52,7.10
2015,09,29,02,53,7.10
2015,09,29,02,54,7.10
2015,09,29,02,55,7.10
2015,09,29,02,56,7.10
2015,09,29,02,57,7.10
2015,09,29,02,58,7.10
2015,09,29,02,59,7.10
2015,09,29,03,00,7.00
2015,09,29,03,01,7.00
2015,09,29,03,02,7.00
2015,09,29,03,03,7.00
2015,09,29,03,04,7.00
2015,09,29,03,05,7.00
2015,09,29,03,06,7.00
2015,09,29,03,07,7.00
2015,09,29,03,08,7.00
2015,09,29,03,09,7.00
2015,09,29,03,10,7.00
2015,09,29,03,11,7.10
2015,09,29,03,12,7.10
2015,09,29,03,13,7.10
2015,09,29,03,14,7.10
2015,09,29,03,15,7.10
2015,09,29,03,16,7.00
2015,09,29,03,17,7.00
2015,09,29,03,18,7.00
2015,09,29,03,19,6.90
2015,09,29,03,20,6.90
2015,09,29,03,21,6.90
2015,09,29,03,22,6.90
2015,09,29,03,23,6.90
2015,09,29,03,24,6.90
2015,09,29,03,25,6.80
2015,09,29,03,26,6.80
2015,09,29,03,27,6.80
2015,09,29,03,28,6.80
2015,09,29,03,29,6.80
2015,09,29,03,30,6.80
2015,09,29,03,31,6.80
2015,09,29,03,32,6.80
2015,09,29,03,33,6.80
2015,09,29,03,34,6.80
2015,09,29,03,35,6.80
2015,09,29,03,36,6.80
2015,09,29,03,37,6.80
2015,09,29,03,38,6.80
2015,09,29,03,39,6.80
2015,09,29,03,40,6.70
2015,09,29,03,41,6.70
2015,09,29,03,42,6.70
2015,09,29,03,43,6.70
2015,09,29,03,44,6.70
2015,09,29,03,45,6.70
2015,09,29,03,46,6.70
2015,09,29,03,47,6.70
2015,09,29,03,48,6.70
2015,09,29,03,49,6.70
2015,09,29,03,50,6.70
2015,09,29,03,51,6.70
2015,09,29,03,52,6.70
2015,09,29,03,53,6.70
2015,09,29,03,54,6.70
2015,09,29,03,55,6.70
2015,09,29,03,56,6.70
2015,09,29,03,57,6.70
2015,09,29,03,58,6.70
2015,09,29,03,59,6.70
2015,09,29,04,00,6.70
2015,09,29,04,01,6.70
2015,09,29,04,02,6.70
2015,09,29,04,03,6.70
2015,09,29,04,04,6.70
2015,09,29,04,05,6.70
2015,09,29,04,06,6.70
2015,09,29,04,07,6.70
2015,09,29,04,08,6.70
2015,09,29,04,09,6.70
2015,09,29,04,10,6.70
2015,09,29,04,11,6.70
2015,09,29,04,12,6.60
2015,09,29,04,13,6.60
2015,09,29,04,14,6.60
2015,09,29,04,15,6.60
2015,09,29,04,16,6.50
2015,09,29,04,17,6.50
2015,09,29,04,18,6.50
2015,09,29,04,19,6.50
2015,09,29,04,20,6.50
2015,09,29,04,21,6.50
2015,09,29,04,22,6.50
2015,09,29,04,23,6.50
2015,09,29,04,24,6.50
2015,09,29,04,25,6.50
2015,09,29,04,26,6.50
2015,09,29,04,27,6.50
2015,09,29,04,28,6.50
2015,09,29,04,29,6.40
2015,09,29,04,30,6.40
2015,09,29,04,31,6.40
2015,09,29,04,32,6.40
2015,09,29,04,33,6.40
2015,09,29,04,34,6.40
2015,09,29,04,35,6.40
2015,09,29,04,36,6.40
2015,09,29,04,37,6.40
2015,09,29,04,38,6.40
2015,09,29,04,39,6.40
2015,09,29,04,40,6.40
2015,09,29,04,41,6.40
2015,09,29,04,42,6.40
2015,09,29,04,43,6.40
2015,09,29,04,44,6.40
2015,09,29,04,45,6.40
2015,09,29,04,46,6.40
2015,09,29,04,47,6.40
2015,09,29,04,48,6.40
2015,09,29,04,49,6.40
2015,09,29,04,50,6.40
2015,09,29,04,51,6.40
2015,09,29,04,52,6.40
2015,09,29,04,53,6.40
2015,09,29,04,54,6.40
2015,09,29,04,55,6.40
2015,09,29,04,56,6.40
2015,09,29,04,57,6.30
2015,09,29,04,58,6.30
2015,09,29,04,59,6.30
2015,09,29,05,00,6.30
2015,09,29,05,01,6.30
2015,09,29,05,02,6.30
2015,09,29,05,03,6.30
2015,09,29,05,04,6.30
2015,09,29,05,05,6.30
2015,09,29,05,06,6.30
2015,09,29,05,07,6.30
2015,09,29,05,08,6.30
2015,09,29,05,09,6.30
2015,09,29,05,10,6.30
2015,09,29,05,11,6.30
2015,09,29,05,12,6.30
2015,09,29,05,13,6.30
2015,09,29,05,14,6.30
2015,09,29,05,15,6.30
2015,09,29,05,16,6.30
2015,09,29,05,17,6.30
2015,09,29,05,18,6.20
2015,09,29,05,19,6.20
2015,09,29,05,20,6.20
2015,09,29,05,21,6.20
2015,09,29,05,22,6.20
2015,09,29,05,23,6.20
2015,09,29,05,24,6.20
2015,09,29,05,25,6.20
2015,09,29,05,26,6.20
2015,09,29,05,27,6.20
2015,09,29,05,28,6.20
2015,09,29,05,29,6.20
2015,09,29,05,30,6.20
2015,09,29,05,31,6.20
2015,09,29,05,32,6.20
2015,09,29,05,33,6.20
2015,09,29,05,34,6.20
2015,09,29,05,35,6.20
2015,09,29,05,36,6.20
2015,09,29,05,37,6.20
2015,09,29,05,38,6.20
2015,09,29,05,39,6.20
2015,09,29,05,40,6.20
2015,09,29,05,41,6.20
2015,09,29,05,42,6.20
2015,09,29,05,43,6.20
2015,09,29,05,44,6.20
2015,09,29,05,45,6.20
2015,09,29,05,46,6.20
2015,09,29,05,47,6.20
2015,09,29,05,48,6.20
2015,09,29,05,49,6.20
2015,09,29,05,50,6.20
2015,09,29,05,51,6.20
2015,09,29,05,52,6.20
2015,09,29,05,53,6.20
2015,09,29,05,54,6.20
2015,09,29,05,55,6.20
2015,09,29,05,56,6.20
2015,09,29,05,57,6.20
2015,09,29,05,58,6.20
2015,09,29,05,59,6.20
2015,09,29,06,00,6.20
2015,09,29,06,01,6.20
2015,09,29,06,02,6.20
2015,09,29,06,03,6.10
2015,09,29,06,04,6.10
2015,09,29,06,05,6.10
2015,09,29,06,06,6.10
2015,09,29,06,07,6.10
2015,09,29,06,08,6.10
2015,09,29,06,09,6.10
2015,09,29,06,10,6.00
2015,09,29,06,11,6.10
2015,09,29,06,12,6.10
2015,09,29,06,13,6.10
2015,09,29,06,14,6.10
2015,09,29,06,15,6.10
2015,09,29,06,16,6.10
2015,09,29,06,17,6.10
2015,09,29,06,18,6.10
2015,09,29,06,19,6.10
2015,09,29,06,20,6.10
2015,09,29,06,21,6.20
2015,09,29,06,22,6.20
2015,09,29,06,23,6.10
2015,09,29,06,24,6.10
2015,09,29,06,25,6.10
2015,09,29,06,26,6.10
2015,09,29,06,27,6.10
2015,09,29,06,28,6.10
2015,09,29,06,29,6.10
2015,09,29,06,30,6.10
2015,09,29,06,31,6.10
2015,09,29,06,32,6.10
2015,09,29,06,33,6.10
2015,09,29,06,34,6.10
2015,09,29,06,35,6.10
2015,09,29,06,36,6.10
2015,09,29,06,37,6.10
2015,09,29,06,38,6.10
2015,09,29,06,39,6.10
2015,09,29,06,40,6.10
2015,09,29,06,41,6.10
2015,09,29,06,42,6.10
2015,09,29,06,43,6.10
2015,09,29,06,44,6.10
2015,09,29,06,45,6.10
2015,09,29,06,46,6.10
2015,09,29,06,47,6.10
2015,09,29,06,48,6.10
2015,09,29,06,49,6.10
2015,09,29,06,50,6.10
2015,09,29,06,51,6.10
2015,09,29,06,52,6.10
2015,09,29,06,53,6.10
2015,09,29,06,54,6.20
2015,09,29,06,55,6.20
2015,09,29,06,56,6.20
2015,09,29,06,57,6.20
2015,09,29,06,58,6.20
2015,09,29,06,59,6.20
2015,09,29,07,00,6.20
2015,09,29,07,01,6.20
2015,09,29,07,02,6.10
2015,09,29,07,03,6.10
2015,09,29,07,04,6.00
2015,09,29,07,05,6.00
2015,09,29,07,06,5.90
2015,09,29,07,07,5.90
2015,09,29,07,08,5.90
2015,09,29,07,09,5.90
2015,09,29,07,10,5.90
2015,09,29,07,11,5.90
2015,09,29,07,12,5.90
2015,09,29,07,13,5.90
2015,09,29,07,14,5.90
2015,09,29,07,15,5.90
2015,09,29,07,16,5.90
2015,09,29,07,17,5.90
2015,09,29,07,18,5.90
2015,09,29,07,19,5.90
2015,09,29,07,20,5.90
2015,09,29,07,21,6.00
2015,09,29,07,22,6.00
2015,09,29,07,23,6.00
2015,09,29,07,24,6.10
2015,09,29,07,25,6.10
2015,09,29,07,26,6.10
2015,09,29,07,27,6.10
2015,09,29,07,28,6.10
2015,09,29,07,29,6.10
2015,09,29,07,30,6.10
2015,09,29,07,31,6.10
2015,09,29,07,32,6.10
2015,09,29,07,33,6.10
2015,09,29,07,34,6.10
2015,09,29,07,35,6.10
2015,09,29,07,36,6.10
2015,09,29,07,37,6.10
2015,09,29,07,38,6.10
2015,09,29,07,39,6.10
2015,09,29,07,40,6.10
2015,09,29,07,41,6.10
2015,09,29,07,42,6.10
2015,09,29,07,43,6.10
2015,09,29,07,44,6.20
2015,09,29,07,45,6.20
2015,09,29,07,46,6.20
2015,09,29,07,47,6.30
2015,09,29,07,48,6.30
2015,09,29,07,49,6.40
2015,09,29,07,50,6.40
2015,09,29,07,51,6.50
2015,09,29,07,52,6.60
2015,09,29,07,53,6.60
2015,09,29,07,54,6.70
2015,09,29,07,55,6.70
2015,09,29,07,56,6.80
2015,09,29,07,57,6.80
2015,09,29,07,58,6.80
2015,09,29,07,59,6.90
2015,09,29,08,00,6.90
2015,09,29,08,01,6.90
2015,09,29,08,02,6.90
2015,09,29,08,03,6.90
2015,09,29,08,04,6.90
2015,09,29,08,05,6.90
2015,09,29,08,06,6.90
2015,09,29,08,07,7.00
2015,09,29,08,08,7.10
2015,09,29,08,09,7.10
2015,09,29,08,10,7.20
2015,09,29,08,11,7.30
2015,09,29,08,12,7.40
2015,09,29,08,13,7.60
2015,09,29,08,14,7.70
2015,09,29,08,15,7.80
2015,09,29,08,16,7.90
2015,09,29,08,17,8.00
2015,09,29,08,18,8.10
2015,09,29,08,19,8.20
2015,09,29,08,20,8.20
2015,09,29,08,21,8.30
2015,09,29,08,22,8.30
2015,09,29,08,23,8.40
2015,09,29,08,24,8.40
2015,09,29,08,25,8.40
2015,09,29,08,26,8.50
2015,09,29,08,27,8.50
2015,09,29,08,28,8.50
2015,09,29,08,29,8.50
2015,09,29,08,30,8.60
2015,09,29,08,31,8.60
2015,09,29,08,32,8.70
2015,09,29,08,33,8.70
2015,09,29,08,34,8.80
2015,09,29,08,35,8.90
2015,09,29,08,36,9.00
2015,09,29,08,37,9.00
2015,09,29,08,38,9.10
2015,09,29,08,39,9.10
2015,09,29,08,40,9.20
2015,09,29,08,41,9.30
2015,09,29,08,42,9.40
2015,09,29,08,43,9.50
2015,09,29,08,44,9.60
2015,09,29,08,45,9.80
2015,09,29,08,46,9.90
2015,09,29,08,47,10.10
2015,09,29,08,48,10.20
2015,09,29,08,49,10.30
2015,09,29,08,50,10.50
2015,09,29,08,51,10.60
2015,09,29,08,52,10.70
2015,09,29,08,53,10.80
2015,09,29,08,54,10.90
2015,09,29,08,55,10.90
2015,09,29,08,56,11.00
2015,09,29,08,57,11.10
2015,09,29,08,58,11.20
2015,09,29,08,59,11.30
2015,09,29,09,00,11.40
2015,09,29,09,01,11.50
2015,09,29,09,02,11.50
2015,09,29,09,03,11.60
2015,09,29,09,04,11.70
2015,09,29,09,05,11.70
2015,09,29,09,06,11.80
2015,09,29,09,07,11.80
2015,09,29,09,08,11.90
2015,09,29,09,09,11.90
2015,09,29,09,10,12.00
2015,09,29,09,11,12.10
2015,09,29,09,12,12.20
2015,09,29,09,13,12.30
2015,09,29,09,14,12.40
2015,09,29,09,15,12.40
2015,09,29,09,16,12.50
2015,09,29,09,17,12.60
2015,09,29,09,18,12.70
2015,09,29,09,19,12.80
2015,09,29,09,20,12.80
2015,09,29,09,21,12.90
2015,09,29,09,22,13.00
2015,09,29,09,23,13.10
2015,09,29,09,24,13.20
2015,09,29,09,25,13.30
2015,09,29,09,26,13.40
2015,09,29,09,27,13.50
2015,09,29,09,28,13.50
2015,09,29,09,29,13.60
2015,09,29,09,30,13.70
2015,09,29,09,31,13.80
2015,09,29,09,32,13.80
2015,09,29,09,33,13.90
2015,09,29,09,34,14.00
2015,09,29,09,35,14.10
2015,09,29,09,36,14.20
2015,09,29,09,37,14.30
2015,09,29,09,38,14.40
2015,09,29,09,39,14.50
2015,09,29,09,40,14.60
2015,09,29,09,41,14.70
2015,09,29,09,42,14.70
2015,09,29,09,43,14.80
2015,09,29,09,44,14.80
2015,09,29,09,45,14.80
2015,09,29,09,46,14.90
2015,09,29,09,47,14.90
2015,09,29,09,48,14.90
2015,09,29,09,49,15.00
2015,09,29,09,50,15.00
2015,09,29,09,51,15.00
2015,09,29,09,52,15.00
2015,09,29,09,53,15.00
2015,09,29,09,54,15.10
2015,09,29,09,55,15.10
2015,09,29,09,56,15.10
2015,09,29,09,57,15.10
2015,09,29,09,58,15.20
2015,09,29,09,59,15.20
2015,09,29,10,00,15.20
2015,09,29,10,01,15.30
2015,09,29,10,02,15.30
2015,09,29,10,03,15.30
2015,09,29,10,04,15.20
2015,09,29,10,05,15.20
2015,09,29,10,06,15.20
2015,09,29,10,07,15.20
2015,09,29,10,08,15.20
2015,09,29,10,09,15.30
2015,09,29,10,10,15.30
2015,09,29,10,11,15.30
2015,09,29,10,12,15.30
2015,09,29,10,13,15.40
2015,09,29,10,14,15.40
2015,09,29,10,15,15.40
2015,09,29,10,16,15.50
2015,09,29,10,17,15.50
2015,09,29,10,18,15.50
2015,09,29,10,19,15.50
2015,09,29,10,20,15.50
2015,09,29,10,21,15.50
2015,09,29,10,22,15.50
2015,09,29,10,23,15.50
2015,09,29,10,24,15.50
2015,09,29,10,25,15.60
2015,09,29,10,26,15.60
2015,09,29,10,27,15.70
2015,09,29,10,28,15.90
2015,09,29,10,29,16.00
2015,09,29,10,30,16.10
2015,09,29,10,31,16.20
2015,09,29,10,32,16.20
2015,09,29,10,33,16.20
2015,09,29,10,34,16.20
2015,09,29,10,35,16.20
2015,09,29,10,36,16.20
2015,09,29,10,37,16.10
2015,09,29,10,38,16.10
2015,09,29,10,39,16.10
2015,09,29,10,40,16.10
2015,09,29,10,41,16.10
2015,09,29,10,42,16.10
2015,09,29,10,43,16.10
2015,09,29,10,44,16.10
2015,09,29,10,45,16.20
2015,09,29,10,46,16.20
2015,09,29,10,47,16.20
2015,09,29,10,48,16.20
2015,09,29,10,49,16.20
2015,09,29,10,50,16.30
2015,09,29,10,51,16.30
2015,09,29,10,52,16.30
2015,09,29,10,53,16.30
2015,09,29,10,54,16.30
2015,09,29,10,55,16.40
2015,09,29,10,56,16.50
2015,09,29,10,57,16.50
2015,09,29,10,58,16.60
2015,09,29,10,59,16.70
2015,09,29,11,00,16.70
2015,09,29,11,01,16.80
2015,09,29,11,02,17.00
2015,09,29,11,03,17.00
2015,09,29,11,04,17.10
2015,09,29,11,05,17.10
2015,09,29,11,06,17.20
2015,09,29,11,07,17.20
2015,09,29,11,08,17.20
2015,09,29,11,09,17.20
2015,09,29,11,10,17.10
2015,09,29,11,11,17.10
2015,09,29,11,12,17.20
2015,09,29,11,13,17.20
2015,09,29,11,14,17.30
2015,09,29,11,15,17.30
2015,09,29,11,16,17.20
2015,09,29,11,17,17.10
2015,09,29,11,18,17.10
2015,09,29,11,19,17.10
2015,09,29,11,20,17.00
2015,09,29,11,21,17.00
2015,09,29,11,22,16.90
2015,09,29,11,23,16.90
2015,09,29,11,24,16.80
2015,09,29,11,25,16.80
2015,09,29,11,26,16.80
2015,09,29,11,27,16.80
2015,09,29,11,28,16.80
2015,09,29,11,29,16.80
2015,09,29,11,30,16.80
2015,09,29,11,31,16.80
2015,09,29,11,32,16.70
2015,09,29,11,33,16.70
2015,09,29,11,34,16.80
2015,09,29,11,35,16.80
2015,09,29,11,36,16.80
2015,09,29,11,37,16.80
2015,09,29,11,38,16.90
2015,09,29,11,39,16.90
2015,09,29,11,40,16.90
2015,09,29,11,41,16.90
2015,09,29,11,42,16.90
2015,09,29,11,43,16.80
2015,09,29,11,44,16.80
2015,09,29,11,45,16.80
2015,09,29,11,46,16.80
2015,09,29,11,47,16.70
2015,09,29,11,48,16.70
2015,09,29,11,49,16.70
2015,09,29,11,50,16.60
2015,09,29,11,51,16.60
2015,09,29,11,52,16.60
2015,09,29,11,53,16.70
2015,09,29,11,54,16.70
2015,09,29,11,55,16.80
2015,09,29,11,56,16.80
2015,09,29,11,57,16.90
2015,09,29,11,58,16.90
2015,09,29,11,59,17.00
2015,09,29,12,00,17.00
2015,09,29,12,01,17.10
2015,09,29,12,02,17.20
2015,09,29,12,03,17.20
2015,09,29,12,04,17.20
2015,09,29,12,05,17.20
2015,09,29,12,06,17.20
2015,09,29,12,07,17.20
2015,09,29,12,08,17.10
2015,09,29,12,09,17.10
2015,09,29,12,10,17.10
2015,09,29,12,11,17.00
2015,09,29,12,12,17.00
2015,09,29,12,13,16.90
2015,09,29,12,14,17.00
2015,09,29,12,15,17.00
2015,09,29,12,16,17.10
2015,09,29,12,17,17.20
2015,09,29,12,18,17.20
2015,09,29,12,19,17.20
2015,09,29,12,20,17.30
2015,09,29,12,21,17.30
2015,09,29,12,22,17.30
2015,09,29,12,23,17.40
2015,09,29,12,24,17.50
2015,09,29,12,25,17.50
2015,09,29,12,26,17.60
2015,09,29,12,27,17.60
2015,09,29,12,28,17.70
2015,09,29,12,29,17.70
2015,09,29,12,30,17.70
2015,09,29,12,31,17.70
2015,09,29,12,32,17.80
2015,09,29,12,33,17.80
2015,09,29,12,34,17.90
2015,09,29,12,35,17.90
2015,09,29,12,36,17.90
2015,09,29,12,37,17.90
2015,09,29,12,38,17.90
2015,09,29,12,39,17.90
2015,09,29,12,40,17.90
2015,09,29,12,41,18.00
2015,09,29,12,42,18.00
2015,09,29,12,43,18.10
2015,09,29,12,44,18.20
2015,09,29,12,45,18.20
2015,09,29,12,46,18.30
2015,09,29,12,47,18.30
2015,09,29,12,48,18.30
2015,09,29,12,49,18.30
2015,09,29,12,50,18.30
2015,09,29,12,51,18.40
2015,09,29,12,52,18.50
2015,09,29,12,53,18.50
2015,09,29,12,54,18.60
2015,09,29,12,55,18.60
2015,09,29,12,56,18.70
2015,09,29,12,57,18.70
2015,09,29,12,58,18.70
2015,09,29,12,59,18.80
2015,09,29,13,00,18.80
2015,09,29,13,01,18.80
2015,09,29,13,02,18.80
2015,09,29,13,03,18.80
2015,09,29,13,04,18.80
2015,09,29,13,05,18.80
2015,09,29,13,06,18.80
2015,09,29,13,07,18.80
2015,09,29,13,08,18.80
2015,09,29,13,09,18.80
2015,09,29,13,10,18.80
2015,09,29,13,11,18.80
2015,09,29,13,12,18.80
2015,09,29,13,13,18.90
2015,09,29,13,14,18.80
2015,09,29,13,15,18.80
2015,09,29,13,16,18.80
2015,09,29,13,17,18.80
2015,09,29,13,18,18.80
2015,09,29,13,19,18.80
2015,09,29,13,20,18.80
2015,09,29,13,21,18.70
2015,09,29,13,22,18.70
2015,09,29,13,23,18.70
2015,09,29,13,24,18.70
2015,09,29,13,25,18.70
2015,09,29,13,26,18.70
2015,09,29,13,27,18.70
2015,09,29,13,28,18.70
2015,09,29,13,29,18.70
2015,09,29,13,30,18.70
2015,09,29,13,31,18.70
2015,09,29,13,32,18.80
2015,09,29,13,33,18.80
2015,09,29,13,34,18.90
2015,09,29,13,35,18.90
2015,09,29,13,36,18.90
2015,09,29,13,37,19.00
2015,09,29,13,38,19.00
2015,09,29,13,39,19.10
2015,09,29,13,40,19.20
2015,09,29,13,41,19.30
2015,09,29,13,42,19.30
2015,09,29,13,43,19.40
2015,09,29,13,44,19.40
2015,09,29,13,45,19.50
2015,09,29,13,46,19.60
2015,09,29,13,47,19.60
2015,09,29,13,48,19.70
2015,09,29,13,49,19.70
2015,09,29,13,50,19.60
2015,09,29,13,51,19.70
2015,09,29,13,52,19.70
2015,09,29,13,53,19.70
2015,09,29,13,54,19.70
2015,09,29,13,55,19.70
2015,09,29,13,56,19.80
2015,09,29,13,57,19.80
2015,09,29,13,58,19.80
2015,09,29,13,59,19.90
2015,09,29,14,00,19.90
2015,09,29,14,01,20.00
2015,09,29,14,02,20.00
2015,09,29,14,03,20.10
2015,09,29,14,04,20.10
2015,09,29,14,05,20.20
2015,09,29,14,06,20.20
2015,09,29,14,07,20.20
2015,09,29,14,08,20.20
2015,09,29,14,09,20.20
2015,09,29,14,10,20.20
2015,09,29,14,11,20.20
2015,09,29,14,12,20.20
2015,09,29,14,13,20.20
2015,09,29,14,14,20.20
2015,09,29,14,15,20.20
2015,09,29,14,16,20.20
2015,09,29,14,17,20.20
2015,09,29,14,18,20.20
2015,09,29,14,19,20.20
2015,09,29,14,20,20.30
2015,09,29,14,21,20.30
2015,09,29,14,22,20.20
2015,09,29,14,23,20.20
2015,09,29,14,24,20.30
2015,09,29,14,25,20.40
2015,09,29,14,26,20.50
2015,09,29,14,27,20.50
2015,09,29,14,28,20.60
2015,09,29,14,29,20.60
2015,09,29,14,30,20.70
2015,09,29,14,31,20.70
2015,09,29,14,32,20.80
2015,09,29,14,33,20.90
2015,09,29,14,34,20.90
2015,09,29,14,35,21.00
2015,09,29,14,36,21.10
2015,09,29,14,37,21.10
2015,09,29,14,38,21.10
2015,09,29,14,39,21.10
2015,09,29,14,40,21.10
2015,09,29,14,41,21.20
2015,09,29,14,42,21.20
2015,09,29,14,43,21.30
2015,09,29,14,44,21.30
2015,09,29,14,45,21.40
2015,09,29,14,46,21.40
2015,09,29,14,47,21.40
2015,09,29,14,48,21.50
2015,09,29,14,49,21.60
2015,09,29,14,50,21.70
2015,09,29,14,51,21.80
2015,09,29,14,52,21.80
2015,09,29,14,53,21.80
2015,09,29,14,54,21.80
2015,09,29,14,55,21.80
2015,09,29,14,56,21.70
2015,09,29,14,57,21.70
2015,09,29,14,58,21.70
2015,09,29,14,59,21.70
2015,09,29,15,00,21.60
2015,09,29,15,01,21.60
2015,09,29,15,02,21.50
2015,09,29,15,03,21.50
2015,09,29,15,04,21.40
2015,09,29,15,05,21.40
2015,09,29,15,06,21.40
2015,09,29,15,07,21.40
2015,09,29,15,08,21.40
2015,09,29,15,09,21.40
2015,09,29,15,10,21.40
2015,09,29,15,11,21.50
2015,09,29,15,12,21.60
2015,09,29,15,13,21.60
2015,09,29,15,14,21.60
2015,09,29,15,15,21.60
2015,09,29,15,16,21.70
2015,09,29,15,17,21.70
2015,09,29,15,18,21.70
2015,09,29,15,19,21.70
2015,09,29,15,20,21.80
2015,09,29,15,21,21.80
2015,09,29,15,22,21.80
2015,09,29,15,23,21.80
2015,09,29,15,24,21.80
2015,09,29,15,25,21.80
2015,09,29,15,26,21.80
2015,09,29,15,27,21.70
2015,09,29,15,28,21.70
2015,09,29,15,29,21.70
2015,09,29,15,30,21.70
2015,09,29,15,31,21.70
2015,09,29,15,32,21.70
2015,09,29,15,33,21.70
2015,09,29,15,34,21.70
2015,09,29,15,35,21.70
2015,09,29,15,36,21.70
2015,09,29,15,37,21.60
2015,09,29,15,38,21.60
2015,09,29,15,39,21.60
2015,09,29,15,40,21.60
2015,09,29,15,41,21.60
2015,09,29,15,42,21.50
2015,09,29,15,43,21.50
2015,09,29,15,44,21.50
2015,09,29,15,45,21.40
2015,09,29,15,46,21.40
2015,09,29,15,47,21.40
2015,09,29,15,48,21.40
2015,09,29,15,49,21.40
2015,09,29,15,50,21.30
2015,09,29,15,51,21.30
2015,09,29,15,52,21.30
2015,09,29,15,53,21.30
2015,09,29,15,54,21.30
2015,09,29,15,55,21.30
2015,09,29,15,56,21.30
2015,09,29,15,57,21.30
2015,09,29,15,58,21.30
2015,09,29,15,59,21.30
2015,09,29,16,00,21.30
2015,09,29,16,01,21.30
2015,09,29,16,02,21.30
2015,09,29,16,03,21.30
2015,09,29,16,04,21.30
2015,09,29,16,05,21.40
2015,09,29,16,06,21.40
2015,09,29,16,07,21.50
2015,09,29,16,08,21.60
2015,09,29,16,09,21.60
2015,09,29,16,10,21.60
2015,09,29,16,11,21.70
2015,09,29,16,12,21.80
2015,09,29,16,13,21.80
2015,09,29,16,14,21.80
2015,09,29,16,15,21.60
2015,09,29,16,16,21.20
2015,09,29,16,17,20.70
2015,09,29,16,18,20.30
2015,09,29,16,19,20.00
2015,09,29,16,20,19.70
2015,09,29,16,21,19.50
2015,09,29,16,22,19.30
2015,09,29,16,23,19.20
2015,09,29,16,24,19.10
2015,09,29,16,25,19.00
2015,09,29,16,26,18.90
2015,09,29,16,27,18.80
2015,09,29,16,28,18.70
2015,09,29,16,29,18.60
2015,09,29,16,30,18.60
2015,09,29,16,31,18.60
2015,09,29,16,32,18.60
2015,09,29,16,33,18.50
2015,09,29,16,34,18.50
2015,09,29,16,35,18.40
2015,09,29,16,36,18.40
2015,09,29,16,37,18.40
2015,09,29,16,38,18.40
2015,09,29,16,39,18.40
2015,09,29,16,40,18.40
2015,09,29,16,41,18.40
2015,09,29,16,42,18.50
2015,09,29,16,43,18.50
2015,09,29,16,44,18.60
2015,09,29,16,45,18.60
2015,09,29,16,46,18.70
2015,09,29,16,47,18.70
2015,09,29,16,48,18.70
2015,09,29,16,49,18.70
2015,09,29,16,50,18.60
2015,09,29,16,51,18.50
2015,09,29,16,52,18.50
2015,09,29,16,53,18.40
2015,09,29,16,54,18.40
2015,09,29,16,55,18.40
2015,09,29,16,56,18.40
2015,09,29,16,57,18.30
2015,09,29,16,58,18.30
2015,09,29,16,59,18.40
2015,09,29,17,00,18.40
2015,09,29,17,01,18.40
2015,09,29,17,02,18.40
2015,09,29,17,03,18.40
2015,09,29,17,04,18.50
2015,09,29,17,05,18.50
2015,09,29,17,06,18.60
2015,09,29,17,07,18.60
2015,09,29,17,08,18.60
2015,09,29,17,09,18.60
2015,09,29,17,10,18.60
2015,09,29,17,11,18.60
2015,09,29,17,12,18.60
2015,09,29,17,13,18.60
2015,09,29,17,14,18.70
2015,09,29,17,15,18.70
2015,09,29,17,16,18.70
2015,09,29,17,17,18.70
2015,09,29,17,18,18.70
2015,09,29,17,19,18.70
2015,09,29,17,20,18.70
2015,09,29,17,21,18.80
2015,09,29,17,22,18.90
2015,09,29,17,23,19.00
2015,09,29,17,24,19.00
2015,09,29,17,25,19.10
2015,09,29,17,26,19.20
2015,09,29,17,27,19.20
2015,09,29,17,28,19.30
2015,09,29,17,29,19.30
2015,09,29,17,30,19.30
2015,09,29,17,31,19.40
2015,09,29,17,32,19.40
2015,09,29,17,33,19.40
2015,09,29,17,34,19.40
2015,09,29,17,35,19.50
2015,09,29,17,36,19.50
2015,09,29,17,37,19.50
2015,09,29,17,38,19.50
2015,09,29,17,39,19.60
2015,09,29,17,40,19.60
2015,09,29,17,41,19.60
2015,09,29,17,42,19.60